Location: Meriden
(44.0740°N, 93.3870°W)
Time: 13:12:05
(UTC-06:00)

Amateur Radio Satellites - All Passes

Search period start: 19 February 2017 12:42
Search period end: 20 February 2017 12:42
Location: Meriden, 44.0740°N, 93.3870°W

Satellite Date Start Highest point End Downlink Frequencies (MHz)
Time Altitude Azimuth
YUBILEINY 19 Feb 12:44:12 12:52:05 35° 291° (WNW) 13:00:01 435.215
VELOX 1 19 Feb 12:53:02 12:57:23 64° 287° (WNW) 13:01:45 145.980
Tancredo 1 19 Feb 12:53:30 12:56:12 23° 350° (N) 12:58:54 437.200
AO-85 19 Feb 12:55:48 12:57:24 12° 34° (NE) 12:58:59 145.980
DX 1 19 Feb 13:07:12 13:11:34 83° 104° (ESE) 13:15:55 434.975-435.025
UKube-1 19 Feb 13:33:08 13:37:27 73° 286° (WNW) 13:41:45 .
ISS 19 Feb 13:49:10 13:51:47 21° 1° (N) 13:54:23 437.550
Gurwin Techsat 1B 19 Feb 13:50:19 13:55:25 47° 261° (W) 14:00:33 435.225
50 SAT 19 Feb 13:51:46 13:53:47 15° 295° (WNW) 13:55:48 437.505
SPROUT 19 Feb 13:53:19 13:56:22 19° 296° (WNW) 13:59:26 437.525
Oscar 19 19 Feb 14:01:07 14:05:02 22° 267° (W) 14:08:58 437.125/150
AO-7 19 Feb 14:07:24 14:15:29 57° 64° (ENE) 14:23:36 .
ITUPSAT 1 19 Feb 14:08:40 14:12:08 20° 92° (E) 14:15:36 437.325
ITAMSAT 1 19 Feb 14:18:15 14:23:23 65° 72° (ENE) 14:28:34 435.822/435.867
BEESAT 19 Feb 14:19:30 14:23:29 25° 94° (E) 14:27:26 436.000
Tancredo 1 19 Feb 14:30:33 14:33:14 23° 10° (N) 14:35:54 437.200
AO-85 19 Feb 14:34:33 14:38:28 78° 53° (NE) 14:42:25 145.980
DX 1 19 Feb 14:45:42 14:47:07 11° 301° (WNW) 14:48:30 434.975-435.025
BEESAT 3 19 Feb 14:52:49 14:54:21 12° 34° (NE) 14:55:53 437.485
KKS-1 19 Feb 15:25:17 15:26:11 11° 88° (E) 15:27:06 437.445
ISS 19 Feb 15:25:47 15:28:53 36° 21° (NNE) 15:31:57 437.550
MOZHAYETS 4 19 Feb 15:39:27 15:44:03 59° 101° (E) 15:48:34
ITUPSAT 1 19 Feb 15:45:35 15:50:14 49° 290° (WNW) 15:54:50 437.325
BEESAT 19 Feb 15:56:55 16:01:21 38° 291° (WNW) 16:05:44 436.000
ITAMSAT 1 19 Feb 16:00:01 16:03:19 17° 269° (W) 16:06:38 435.822/435.867
AO-7 19 Feb 16:01:03 16:08:32 36° 263° (W) 16:16:05 .
Tancredo 1 19 Feb 16:06:44 16:09:57 69° 29° (NNE) 16:13:09 437.200
STARS 19 Feb 16:16:21 16:19:17 17° 92° (E) 16:22:13 437.465
CUTE-I 19 Feb 16:19:19 16:22:58 19° 60° (ENE) 16:26:39 437.470
PCSat 19 Feb 16:19:54 16:22:27 14° 103° (ESE) 16:25:00 145.827
RS-15 19 Feb 16:20:00 16:26:03 16° 94° (E) 16:32:11 29.354- 29.394
CUBESAT XI-V 19 Feb 16:21:14 16:25:07 26° 94° (E) 16:28:58 437.345
BEESAT 3 19 Feb 16:28:42 16:32:43 69° 53° (NE) 16:36:42 437.485
BEESAT 2 19 Feb 16:52:10 16:56:09 51° 52° (NE) 17:00:05 435.950
XW-2F 19 Feb 16:55:41 16:59:00 29° 69° (ENE) 17:02:22 145.980 - 146.000
XW-2D 19 Feb 16:56:08 16:59:31 31° 70° (ENE) 17:02:57 145.860 - 145.880
KKS-1 19 Feb 16:58:49 17:03:17 79° 286° (WNW) 17:07:45 437.445
XW-2B 19 Feb 17:00:55 17:04:23 34° 71° (ENE) 17:07:54 145.730 - 145.750
DOVE 4 19 Feb 17:01:11 17:05:02 38° 71° (ENE) 17:08:54 437.250
KAITUO 1B 19 Feb 17:02:07 17:05:25 29° 69° (ENE) 17:08:45 145.475/437.950
ISS 19 Feb 17:02:16 17:05:22 39° 219° (SW) 17:08:27 437.550
XW-2C 19 Feb 17:09:04 17:12:42 42° 72° (ENE) 17:16:23 145.795 - 145.815
MOZHAYETS 4 19 Feb 17:17:49 17:20:43 17° 298° (WNW) 17:23:37
LilacSat-2 19 Feb 17:18:35 17:22:23 58° 74° (ENE) 17:26:14 437.200
M-CUBED/EXP-1 PRIME 19 Feb 17:21:15 17:24:42 42° 105° (ESE) 17:28:22 437.505
XW-2A 19 Feb 17:37:15 17:38:58 13° 65° (ENE) 17:40:41 145.665 - 145.685
Tancredo 1 19 Feb 17:43:48 17:45:55 16° 226° (SW) 17:48:01 437.200
NUDT-PHONESAT 19 Feb 17:44:36 17:48:21 86° 257° (WSW) 17:52:10 437.300
HO-68 19 Feb 17:51:17 17:57:40 36° 61° (ENE) 18:04:03 435.675
STARS 19 Feb 17:51:37 17:55:52 48° 289° (WNW) 18:00:09 437.465
CUTE-I 19 Feb 17:57:12 18:02:29 66° 258° (WSW) 18:07:50 437.470
CUBESAT XI-V 19 Feb 17:58:24 18:02:31 33° 292° (WNW) 18:06:38 437.345
PCSat 19 Feb 17:59:37 18:05:03 88° 306° (NW) 18:10:31 145.827
BEESAT 3 19 Feb 18:08:11 18:09:47 12° 251° (WSW) 18:11:22 437.485
SEEDS 19 Feb 18:14:00 18:17:02 19° 65° (ENE) 18:20:05 437.485
RS-15 19 Feb 18:24:13 18:35:55 67° 116° (ESE) 18:48:06 29.354- 29.394
AAUSAT CUBESAT 2 19 Feb 18:24:18 18:26:10 13° 62° (ENE) 18:28:00 437.432
XW-2F 19 Feb 18:30:11 18:33:10 21° 266° (W) 18:36:11 145.980 - 146.000
XW-2D 19 Feb 18:30:53 18:33:46 20° 267° (W) 18:36:41 145.860 - 145.880
BEESAT 2 19 Feb 18:30:57 18:33:32 16° 249° (WSW) 18:36:06 435.950
XW-2B 19 Feb 18:35:57 18:38:41 18° 267° (W) 18:41:26 145.730 - 145.750
KAITUO 1B 19 Feb 18:36:31 18:39:27 21° 266° (W) 18:42:25 145.475/437.950
CUTE 1.7 + AOD 2 19 Feb 18:38:24 18:42:34 50° 72° (ENE) 18:46:44 437.475
DOVE 4 19 Feb 18:39:59 18:42:55 18° 267° (W) 18:45:51 437.250
UWE-3 19 Feb 18:41:08 18:44:01 17° 63° (ENE) 18:46:58 435.000/436.395/437.385
XW-2C 19 Feb 18:44:53 18:47:07 15° 269° (W) 18:49:22 145.795 - 145.815
Oscar 11 19 Feb 18:50:53 18:51:43 10° 59° (ENE) 18:52:32 .
LilacSat-2 19 Feb 18:55:51 18:57:03 11° 271° (W) 18:58:14 437.200
M-CUBED/EXP-1 PRIME 19 Feb 18:56:47 18:58:57 15° 299° (WNW) 19:01:11 437.505
STRAND 1 19 Feb 18:59:21 19:03:55 31° 96° (E) 19:08:26 437.568
XW-2A 19 Feb 19:08:14 19:11:24 38° 262° (W) 19:14:37 145.665 - 145.685
ZACube-1 19 Feb 19:16:22 19:19:52 24° 66° (ENE) 19:23:27 437.345
CUBEBUG 2 19 Feb 19:24:24 19:28:43 71° 76° (ENE) 19:33:14 437.445
HO-68 19 Feb 19:38:16 19:45:11 49° 260° (W) 19:52:08 435.675
PCSat 19 Feb 19:45:29 19:49:14 19° 321° (NW) 19:53:00 145.827
SEEDS 19 Feb 19:48:26 19:52:27 41° 262° (W) 19:56:29 437.485
AAUSAT CUBESAT 2 19 Feb 19:56:57 20:01:05 66° 258° (WSW) 20:05:15 437.432
AO-73 19 Feb 20:07:39 20:12:01 71° 75° (ENE) 20:16:31 145.935
UWE-3 19 Feb 20:15:45 20:20:01 53° 261° (W) 20:24:27 435.000/436.395/437.385
CUTE 1.7 + AOD 2 19 Feb 20:16:06 20:18:41 15° 269° (W) 20:21:16 437.475
Oscar 11 19 Feb 20:22:46 20:27:07 89° 232° (SW) 20:31:31 .
RS-15 19 Feb 20:37:35 20:49:09 48° 322° (NW) 21:01:03 29.354- 29.394
STRAND 1 19 Feb 20:38:25 20:43:06 35° 293° (WNW) 20:47:44 437.568
ZACube-1 19 Feb 20:51:52 20:55:56 36° 263° (W) 21:00:06 437.345
DELFI C3 19 Feb 20:52:11 20:56:07 61° 74° (ENE) 21:00:02 145.870
YUBILEINY 19 Feb 20:54:58 21:02:25 30° 66° (ENE) 21:09:47 435.215
CUBEBUG 2 19 Feb 21:04:22 21:05:54 12° 273° (W) 21:07:28 437.445
FO-29 19 Feb 21:14:52 21:18:08 13° 81° (E) 21:21:18 435.910
ESTCUBE 1 19 Feb 21:24:37 21:26:39 13° 60° (ENE) 21:28:40 437.505/2401.250
AO-73 19 Feb 21:47:09 21:48:47 12° 272° (W) 21:50:26 145.935
UNISAT 6 19 Feb 21:51:53 21:56:14 36° 97° (E) 22:00:32 437.425
TIGRISAT 19 Feb 21:54:13 21:58:33 35° 96° (E) 22:02:50 435.000
PRISM 19 Feb 22:03:26 22:07:30 71° 286° (WNW) 22:11:33 437.425
VELOX 1 19 Feb 22:17:13 22:19:44 15° 61° (ENE) 22:22:14 145.980
DELFI C3 19 Feb 22:30:10 22:31:18 11° 271° (W) 22:32:26 145.870
POLYITAN 1 19 Feb 22:51:15 22:53:21 13° 90° (E) 22:55:27 437.675
YUBILEINY 19 Feb 22:51:15 22:59:53 66° 268° (W) 23:08:26 435.215
QB50P2 19 Feb 22:53:34 22:56:06 15° 91° (E) 22:58:37 145.880/145.840
50 SAT 19 Feb 22:53:47 22:56:20 19° 67° (ENE) 22:58:54 437.505
UKube-1 19 Feb 22:55:35 22:57:28 13° 60° (ENE) 22:59:21 .
RS-15 19 Feb 22:55:36 23:05:46 28° 355° (N) 23:15:57 29.354- 29.394
NANOSAT C BR1 19 Feb 22:56:43 22:58:59 14° 90° (E) 23:01:13 145.865
FO-29 19 Feb 22:56:45 23:04:36 69° 101° (E) 23:11:51 435.910
ESTCUBE 1 19 Feb 22:58:18 23:02:49 77° 256° (WSW) 23:07:22 437.505/2401.250
SO-50 19 Feb 23:07:41 23:11:33 26° 114° (ESE) 23:15:23 436.795
SPROUT 19 Feb 23:11:15 23:15:12 39° 70° (ENE) 23:19:11 437.525
AIST 2D 19 Feb 23:18:46 23:22:12 41° 98° (E) 23:25:34 435.315
UNISAT 6 19 Feb 23:28:51 23:32:46 27° 294° (WNW) 23:36:41 437.425
TIGRISAT 19 Feb 23:31:07 23:35:05 27° 294° (WNW) 23:39:01 435.000
VELOX 1 19 Feb 23:51:22 23:55:42 60° 259° (WSW) 00:00:04 145.980
BUGSAT 1 19 Feb 23:54:40 23:57:43 19° 93° (E) 00:00:45 437.445
DX 1 20 Feb 00:03:46 00:08:06 85° 72° (ENE) 00:12:27 434.975-435.025
DUCHIFAT 1 20 Feb 00:06:22 00:10:39 72° 102° (ESE) 00:14:54 145.980
O/OREOS (USA 219) 20 Feb 00:07:37 00:12:05 82° 110° (ESE) 00:16:36 437.305
EO-79 20 Feb 00:09:42 00:14:01 88° 281° (W) 00:18:18 145.935-145.965
POLYITAN 1 20 Feb 00:25:16 00:29:31 59° 287° (WNW) 00:33:45 437.675
50 SAT 20 Feb 00:26:16 00:29:19 27° 263° (W) 00:32:23 437.505
QB50P2 20 Feb 00:28:01 00:32:12 52° 288° (WNW) 00:36:21 145.880/145.840
UKube-1 20 Feb 00:28:38 00:32:55 72° 257° (WSW) 00:37:14 .
NANOSAT C BR1 20 Feb 00:30:50 00:35:02 56° 287° (WNW) 00:39:13 145.865
Oscar 19 20 Feb 00:31:51 00:34:47 15° 90° (E) 00:37:42 437.125/150
FO-29 20 Feb 00:42:28 00:48:56 29° 301° (WNW) 00:55:06 435.910
SO-50 20 Feb 00:47:21 00:51:49 43° 311° (NW) 00:56:14 436.795
SPROUT 20 Feb 00:48:11 00:51:17 19° 267° (W) 00:54:24 437.525
YUBILEINY 20 Feb 00:51:50 00:54:49 12° 289° (WNW) 00:57:47 435.215
AIST 2D 20 Feb 00:53:10 00:55:04 14° 295° (WNW) 00:56:59 435.315
PCSat 20 Feb 01:03:28 01:07:30 20° 40° (NE) 01:11:30 145.827
RS-15 20 Feb 01:11:41 01:23:01 38° 29° (NNE) 01:34:04 29.354- 29.394
ITUPSAT 1 20 Feb 01:16:33 01:20:36 28° 65° (ENE) 01:24:41 437.325
BEESAT 20 Feb 01:27:05 01:31:24 35° 67° (ENE) 01:35:44 436.000
BUGSAT 1 20 Feb 01:29:16 01:33:13 40° 289° (WNW) 01:37:11 437.445
DUCHIFAT 1 20 Feb 01:43:58 01:45:44 12° 299° (WNW) 01:47:32 145.980
O/OREOS (USA 219) 20 Feb 01:49:52 01:52:08 13° 312° (NW) 01:54:23 437.305
Gurwin Techsat 1B 20 Feb 02:04:40 02:09:57 61° 101° (ESE) 02:15:12 435.225
Oscar 19 20 Feb 02:09:30 02:14:37 70° 287° (WNW) 02:19:41 437.125/150
AO-7 20 Feb 02:09:48 02:13:47 14° 86° (E) 02:17:46 .
KKS-1 20 Feb 02:24:19 02:26:24 13° 60° (ENE) 02:28:28 437.445
ITAMSAT 1 20 Feb 02:30:25 02:34:16 20° 92° (E) 02:38:04 435.822/435.867
SO-50 20 Feb 02:32:31 02:33:28 11° 333° (NNW) 02:34:25 436.795
MOZHAYETS 4 20 Feb 02:42:19 02:46:55 66° 73° (ENE) 02:51:33
PCSat 20 Feb 02:46:06 02:51:34 82° 241° (WSW) 02:56:59 145.827
ITUPSAT 1 20 Feb 02:53:54 02:58:18 35° 263° (W) 03:02:44 437.325
BEESAT 20 Feb 03:05:08 03:09:12 27° 265° (W) 03:13:18 436.000
STARS 20 Feb 03:14:27 03:17:32 19° 64° (ENE) 03:20:39 437.465
RS-15 20 Feb 03:24:51 03:37:17 89° 235° (SW) 03:49:10 29.354- 29.394
CUBESAT XI-V 20 Feb 03:25:44 03:29:50 31° 68° (ENE) 03:33:56 437.345
Gurwin Techsat 1B 20 Feb 03:45:37 03:49:26 20° 299° (WNW) 03:53:14 435.225
Oscar 19 20 Feb 03:52:15 03:52:59 10° 305° (NW) 03:53:42 437.125/150
KKS-1 20 Feb 03:57:58 04:02:22 72° 258° (WSW) 04:06:49 437.445
AO-7 20 Feb 03:59:37 04:07:58 73° 106° (ESE) 04:16:15 .
ITAMSAT 1 20 Feb 04:08:56 04:14:03 55° 290° (WNW) 04:19:08 435.822/435.867
M-CUBED/EXP-1 PRIME 20 Feb 04:09:07 04:12:28 73° 70° (ENE) 04:15:44 437.505
MOZHAYETS 4 20 Feb 04:22:10 04:24:31 14° 271° (W) 04:26:53
PCSat 20 Feb 04:32:19 04:34:03 11° 258° (WSW) 04:35:47 145.827
STARS 20 Feb 04:49:24 04:53:34 45° 261° (W) 04:57:47 437.465
AO-85 20 Feb 04:51:15 04:54:19 18° 113° (ESE) 04:57:17 145.980
CUBESAT XI-V 20 Feb 05:03:06 05:07:10 29° 265° (W) 05:11:15 437.345
RS-15 20 Feb 05:38:56 05:48:03 26° 260° (W) 05:56:57 29.354- 29.394
AO-7 20 Feb 05:53:13 06:00:04 30° 306° (NW) 06:06:54 .
XW-2F 20 Feb 06:00:09 06:03:40 33° 97° (E) 06:07:08 145.980 - 146.000
XW-2D 20 Feb 06:01:01 06:04:36 36° 97° (E) 06:08:08 145.860 - 145.880
KAITUO 1B 20 Feb 06:05:35 06:09:02 32° 97° (E) 06:12:26 145.475/437.950
XW-2B 20 Feb 06:05:52 06:09:31 40° 98° (E) 06:13:07 145.730 - 145.750
CUTE-I 20 Feb 06:12:43 06:17:52 45° 99° (E) 06:23:00 437.470
XW-2C 20 Feb 06:14:09 06:17:56 51° 100° (E) 06:21:39 145.795 - 145.815
STRAND 1 20 Feb 06:16:26 06:21:23 51° 70° (ENE) 06:26:23 437.568
LilacSat-2 20 Feb 06:24:27 06:28:21 73° 103° (ESE) 06:32:10 437.200
AO-85 20 Feb 06:29:59 06:34:25 54° 308° (NW) 06:38:34 145.980
XW-2A 20 Feb 06:30:29 06:31:33 11° 90° (E) 06:32:38 145.665 - 145.685
DOVE 4 20 Feb 06:34:37 06:39:10 89° 289° (WNW) 06:44:00 437.250
NUDT-PHONESAT 20 Feb 06:47:38 06:51:25 74° 285° (WNW) 06:55:10 437.300
HO-68 20 Feb 07:04:21 07:10:34 31° 95° (E) 07:16:45 435.675
CUBEBUG 2 20 Feb 07:14:51 07:17:37 15° 89° (E) 07:20:21 437.445
PRISM 20 Feb 07:22:54 07:23:08 10° 59° (ENE) 07:23:20 437.425
SEEDS 20 Feb 07:30:48 07:34:25 28° 95° (E) 07:38:00 437.485
XW-2F 20 Feb 07:34:51 07:37:35 19° 294° (WNW) 07:40:20 145.980 - 146.000
XW-2D 20 Feb 07:35:54 07:38:32 18° 294° (WNW) 07:41:09 145.860 - 145.880
SO-50 20 Feb 07:36:53 07:41:06 36° 47° (NE) 07:45:14 436.795
AAUSAT CUBESAT 2 20 Feb 07:38:33 07:41:16 17° 92° (E) 07:43:57 437.432
KAITUO 1B 20 Feb 07:40:07 07:42:51 19° 294° (WNW) 07:45:33 145.475/437.950
XW-2B 20 Feb 07:40:56 07:43:24 16° 295° (WNW) 07:45:51 145.730 - 145.750
XW-2C 20 Feb 07:49:46 07:51:42 13° 297° (WNW) 07:53:37 145.795 - 145.815
CUTE-I 20 Feb 07:53:13 07:57:40 27° 296° (WNW) 08:02:07 437.470
AO-73 20 Feb 07:55:51 07:58:02 13° 88° (E) 08:00:12 145.935
BEESAT 3 20 Feb 07:56:56 08:00:49 75° 123° (ESE) 08:04:47 437.485
STRAND 1 20 Feb 07:57:00 08:00:50 21° 268° (W) 08:04:42 437.568
CUTE 1.7 + AOD 2 20 Feb 07:57:19 08:01:35 84° 103° (ESE) 08:05:47 437.475
XW-2A 20 Feb 08:01:15 08:04:35 45° 287° (WNW) 08:07:54 145.665 - 145.685
LilacSat-2 20 Feb 08:01:31 08:02:02 10° 299° (WNW) 08:02:33 437.200
UWE-3 20 Feb 08:03:53 08:07:59 29° 95° (E) 08:12:03 435.000/436.395/437.385
Oscar 11 20 Feb 08:09:47 08:12:21 15° 91° (E) 08:14:52 .
AO-85 20 Feb 08:14:47 08:15:41 11° 328° (NNW) 08:16:35 145.980
DOVE 4 20 Feb 08:15:00 08:16:15 11° 300° (WNW) 08:17:32 437.250
BEESAT 2 20 Feb 08:22:05 08:25:57 57° 120° (ESE) 08:29:53 435.950
O/OREOS (USA 219) 20 Feb 08:37:20 08:41:04 24° 55° (NE) 08:44:48 437.305
ZACube-1 20 Feb 08:38:17 08:42:36 39° 97° (E) 08:46:52 437.345
CUBEBUG 2 20 Feb 08:49:54 08:54:37 63° 286° (WNW) 08:59:19 437.445
HO-68 20 Feb 08:51:39 08:58:35 55° 294° (WNW) 09:05:29 435.675
UNISAT 6 20 Feb 08:51:59 08:56:02 36° 69° (ENE) 09:00:13 437.425
PRISM 20 Feb 08:53:40 08:57:46 84° 258° (WSW) 09:01:52 437.425
TIGRISAT 20 Feb 08:54:10 08:58:12 35° 69° (ENE) 09:02:21 435.000
SEEDS 20 Feb 09:06:30 09:10:02 27° 292° (WNW) 09:13:31 437.485
FO-29 20 Feb 09:09:41 09:16:00 38° 62° (ENE) 09:22:52 435.910
AAUSAT CUBESAT 2 20 Feb 09:13:02 09:16:56 42° 288° (WNW) 09:20:48 437.432
SO-50 20 Feb 09:17:33 09:21:27 29° 245° (WSW) 09:25:19 436.795
AO-73 20 Feb 09:30:10 09:34:44 67° 286° (WNW) 09:39:12 145.935
CUTE 1.7 + AOD 2 20 Feb 09:35:53 09:36:45 11° 300° (WNW) 09:37:35 437.475
BEESAT 3 20 Feb 09:36:29 09:38:55 16° 322° (NW) 09:41:23 437.485
UWE-3 20 Feb 09:40:15 09:44:24 32° 292° (WNW) 09:48:30 435.000/436.395/437.385
ISS 20 Feb 09:42:55 09:45:44 26° 138° (SE) 09:48:34 437.550
Oscar 11 20 Feb 09:44:33 09:48:47 52° 287° (WNW) 09:52:59 .
POLYITAN 1 20 Feb 09:45:46 09:47:44 13° 61° (ENE) 09:49:44 437.675
QB50P2 20 Feb 09:48:02 09:50:23 15° 62° (ENE) 09:52:46 145.880/145.840
NANOSAT C BR1 20 Feb 09:50:46 09:52:49 13° 61° (ENE) 09:54:53 145.865
AIST 2D 20 Feb 09:55:11 09:57:48 20° 68° (ENE) 10:00:27 435.315
YUBILEINY 20 Feb 09:58:25 10:05:50 32° 83° (E) 10:13:15 435.215
BEESAT 2 20 Feb 10:01:12 10:04:04 19° 320° (NW) 10:06:58 435.950
DELFI C3 20 Feb 10:02:27 10:06:23 84° 103° (ESE) 10:10:18 145.870
ZACube-1 20 Feb 10:15:01 10:18:39 23° 294° (WNW) 10:22:14 437.345
O/OREOS (USA 219) 20 Feb 10:16:21 10:20:37 40° 253° (WSW) 10:24:53 437.305
Tancredo 1 20 Feb 10:21:29 10:24:43 62° 144° (SE) 10:27:57 437.200
UNISAT 6 20 Feb 10:29:15 10:32:51 24° 267° (W) 10:36:31 437.425
TIGRISAT 20 Feb 10:31:21 10:34:58 24° 267° (W) 10:38:40 435.000
HO-68 20 Feb 10:42:16 10:44:46 12° 314° (NW) 10:47:17 435.675
BUGSAT 1 20 Feb 10:46:21 10:48:53 16° 63° (ENE) 10:51:27 437.445
ESTCUBE 1 20 Feb 10:50:03 10:53:20 20° 93° (E) 10:56:36 437.505/2401.250
FO-29 20 Feb 10:54:10 11:00:46 49° 263° (W) 11:08:06 435.910
DUCHIFAT 1 20 Feb 10:59:12 11:03:19 62° 74° (ENE) 11:07:30 145.980
EO-79 20 Feb 11:03:04 11:07:17 82° 76° (ENE) 11:11:33 145.935-145.965
POLYITAN 1 20 Feb 11:18:47 11:22:58 67° 258° (WSW) 11:27:13 437.675
ISS 20 Feb 11:18:51 11:22:04 48° 335° (NNW) 11:25:17 437.550
QB50P2 20 Feb 11:21:34 11:25:42 58° 259° (W) 11:29:55 145.880/145.840
NANOSAT C BR1 20 Feb 11:23:51 11:28:01 64° 259° (W) 11:32:13 145.865
AIST 2D 20 Feb 11:27:50 11:30:53 27° 264° (W) 11:33:59 435.315
VELOX 1 20 Feb 11:40:20 11:43:47 22° 94° (E) 11:47:13 145.980
Oscar 19 20 Feb 11:49:34 11:53:52 27° 64° (ENE) 11:58:09 437.125/150
Gurwin Techsat 1B 20 Feb 11:49:57 11:53:14 17° 59° (ENE) 11:56:31 435.225
50 SAT 20 Feb 11:50:08 11:52:23 16° 93° (E) 11:54:37 437.505
DX 1 20 Feb 11:52:07 11:54:08 13° 90° (E) 11:56:08 434.975-435.025
YUBILEINY 20 Feb 11:53:23 12:02:05 60° 283° (WNW) 12:10:48 435.215
Tancredo 1 20 Feb 11:58:17 12:01:12 29° 343° (NNW) 12:04:07 437.200
UKube-1 20 Feb 12:15:11 12:17:57 16° 92° (E) 12:20:41 .
BUGSAT 1 20 Feb 12:20:00 12:23:53 46° 261° (W) 12:27:50 437.445
ESTCUBE 1 20 Feb 12:26:05 12:30:20 42° 289° (WNW) 12:34:33 437.505/2401.250
SPROUT 20 Feb 12:30:50 12:35:07 62° 101° (E) 12:39:23 437.525
DUCHIFAT 1 20 Feb 12:37:41 12:39:25 12° 271° (W) 12:41:08 145.980
